Bob Hope Airport
KBUR : now visible

Airfield :











YOU CAN JOIN US ON...

 
LOGIN :

Register | Disclaimer

   EN    FR    IT 

 









Legend :    VFR   Marginal VFR   IFR   Intensive IFR   Very Intensive IFR
Visi :
Ceiling :
>= 8 km
>= 3000ft
5 to 8 km
1000 to 3000 ft
1500m to 5 km
500 to 1000 ft
800 to 1500m
200 to 500 ft
< 800m
< 200 ft
Symbols :   Thunderstorms  Fog  Heavy snow  Heavy precipitations  Wind > 20 kt






- Airport Elevation : 778 ft
- IATA code : BUR


KBUR - Bob Hope

CURRENT METAR :
  • 191453Z 00000KT 9SM CLR 09/04 A3004 RMK AO2 SLP165 T00940044 53008 $

EXPIRED METARs :
  • 191353Z 34003KT 6SM HZ CLR 10/07 A3002 RMK AO2 SLP159 T01000067 $
  • 191313Z 35003KT 5SM HZ SCT016 11/07 A3001 RMK AO2 T01060072 $

TAF KBUR
Valid from the 19 at 14:00 until the 20 at 12:00 UTC


191425Z 1914/2012 VRB03KT 6SM BR SKC
FM191900 17008KT P6SM SKC
FM200300 VRB03KT P6SM SKC



MET'MAP, your aeronautical weather chart ! - Copyright ORBIFLY December 2007 - Disclaimer

ORBIFLY MET'MAP TEAM :

Programming & Development : Alexandra Zaïnal
Concept & original design : Baudouin d'Aumeries
Assistance for programming : Marc-Olivier Méhu
Technical & hardware support : Manuel Goepfert

Contact : metmap@orbifly.com




SOURCES & CREDITS :

   NOAA       Earth
Advisory